Satellite-Ground Cal/Val Site Overpasses Predictions

Prediction of Satellite NPP Overpassing Cal/Val Site: Antarctic Dome C

Ground Cal/Val Site Location: Latitude: -75.10, Longitude: 123.35; Satellite-Ground Site NADIR distance within 100 km.

Table of predicted overpasses for the next 14.0 days since TLE Epoch: 6/3/2014
Interval Starting Time Ending Time Minimum Distance Time Minimum Distance (km)
1 06/03/2014 15:07:37 06/03/2014 15:07:59 06/03/2014 15:07:48 67.61
2 06/04/2014 14:48:46 06/04/2014 14:49:12 06/04/2014 14:48:59 41.69
3 06/05/2014 07:50:28 06/05/2014 07:50:50 06/05/2014 07:50:39 67.26
4 06/06/2014 07:31:37 06/06/2014 07:32:04 06/06/2014 07:31:50 40.57
5 06/09/2014 14:55:07 06/09/2014 14:55:36 06/09/2014 14:55:22 6.30
6 06/11/2014 07:37:59 06/11/2014 07:38:28 06/11/2014 07:38:13 4.57
7 06/14/2014 15:01:29 06/14/2014 15:01:57 06/14/2014 15:01:43 30.23
8 06/15/2014 14:42:47 06/15/2014 14:43:05 06/15/2014 14:42:56 77.03


NCC Satellite Cal/Val Overpasses Prediction Service
